AirNav   Everest Fuels
 
 976 users online  

03MN Nauerth Land Ranch Airport
Lakefield, Minnesota, USA

GOING TO LAKEFIELD?


FAA INFORMATION EFFECTIVE 03 NOVEMBER 2022

Location

FAA Identifier: 03MN
Lat/Long: 43-37-30.8580N 095-13-29.0000W
43-37.514300N 095-13.483333W
43.6252383,-95.2247222
(estimated)
Elevation: 1435 ft. / 437 m (estimated)
Variation: 04E (1995)
From city: 3 miles SW of LAKEFIELD, MN
Time zone: UTC -6 (UTC -5 during Daylight Saving Time)
Zip code: 56150

Airport Operations

Airport use: Private use. Permission required prior to landing
Activation date: 02/1998
Control tower: no
ARTCC: MINNEAPOLIS CENTER
FSS: PRINCETON FLIGHT SERVICE STATION
Attendance: UNATNDD
Segmented circle: no

Airport Communications

WX AWOS-3 at MJQ (10 nm E): 118.1 (507-847-5810)
WX AWOS-3PT at OTG (15 nm W): 121.075 (507-376-9441)
WX AWOS-3 at MWM (18 nm N): 118.525 (507-831-1833)

Nearby radio navigation aids

VOR radial/distance  VOR name  Freq  Var
SPWr353/27.8SPENCER VOR/DME115.1505E

 
NDB name  Hdg/Dist  Freq  Var  ID
WONDD085/10.427702EOT --- -

Airport Services

Runway Information

Runway 17/35

Dimensions: 1940 x 75 ft. / 591 x 23 m
Surface: turf
RUNWAY 17  RUNWAY 35
Traffic pattern: leftleft
Obstructions: none150 ft. pline, 2890 ft. from runway

Airport Ownership and Management from official FAA records

Ownership: Privately-owned
Owner: JOHN NAUERTH III
RR 2 BOX 21
LAKEFIELD, MN 56150
Phone 507-662-5473
Manager: JOHN NAUERTH III
RR 2 BOX 21
LAKEFIELD, MN 56150
Phone 507-841-0085

Airport Operational Statistics

Aircraft based on the field: 1
Single engine airplanes: 1
    

Additional Remarks

FOR CD CTC MINNEAPOLIS ARTCC AT 651-463-5588.

Instrument Procedures

There are no published instrument procedures at 03MN.

Some nearby airports with instrument procedures:

KMJQ - Jackson Municipal Airport (10 nm E)
KOTG - Worthington Municipal Airport (15 nm W)
4D8 - Fuller Airport (18 nm S)
KMWM - Windom Municipal Airport (18 nm N)
KEST - Estherville Municipal Airport (25 nm SE)
 
Loc | Ops | Rwys | IFR | FBO | Links
Com | Nav | Svcs | Stats | Notes
Area around 03MN (Nauerth Land Ranch Airport)
 
Road maps at: MapQuest Bing Google
 
Aerial photo
No photo
 
Sectional chart

 
Airport distance calculator
Flying to Nauerth Land Ranch Airport? Find the distance to fly.

From to 03MN

Sunrise and sunset
Times for 26-Nov-2022
 Local
(UTC-6)
 Zulu
(UTC)
Morning civil twilight06:5812:58
Sunrise07:3013:30
Sunset16:4722:47
Evening civil twilight17:1923:19

Current date and time
Zulu (UTC)  26-Nov-2022 15:56:27
Local (UTC-6)  26-Nov-2022 09:56:27
 
METAR
KMJQ 
11nm E 
261535Z AUTO 20013G22KT 10SM CLR 04/M05 A2977 RMK AO2
KOTG 
15nm W 
261456Z AUTO 20019KT 10SM CLR 04/M07 A2973 RMK AO2 SLP082 T00391067 56021
KMWM 
17nm N 
261535Z AUTO 19013G20KT 10SM CLR 05/M06 A2972 RMK AO2
TAF
NOTAMs
Click for the latest NOTAMs
NOTAMs are issued by the DoD/FAA and will open in a separate window not controlled by AirNav.

 

 
 

Would you like to see your business listed on this page?

 If your business provides an interesting product or service to pilots, flight crews, aircraft, or users of the Nauerth Land Ranch Airport, you should consider listing it here.  To start the listing process, click on the button below
 
Add a business
 

Other Pages about Nauerth Land Ranch Airport

Update a link
 
Copyright © AirNav, LLC. All rights reserved. Privacy Policy  Contact